Date String (YYYY-MM-DD hh:mm:ss) UTC,Instrument flags,absolute air pressure of the measurement (hPa),sample flow rate (lpm),inlet stack bypass flow (lpm),air temperature of the measurement (°C),ambient temperature measured by the external sensor (°C),aerosol sample conditioner tube jacket temperature (°C),OPC LED temperature (°C),internal box temperature (°C),relative humidity of the measurement (%),span deviation,mass concentration of particles derived from Lorenz-Mie calculation of OPC scattering (μg/m³),mass concentration of particles derived from Lorenz-Mie calculation of OPC scattering (μg/m³),mass concentration of particles derived from Lorenz-Mie calculation of OPC scattering (μg/m³)
DateTimeUTC,F1_M11,P_M11,Q1_M11,Q2_M11,T1_M11,T2_M11,T3_M11,T4_M11,T5_M11,U1_M11,ZSPAN_M11,X0_M11,X2_M11,X1_M11
2024-03-06 17:00:00,SystemResetWarning,0821.6,5.00,000.00,019.7,019.3,000.0,027.9,021.4,19.3,0000.5,0019.66,0007.30,0006.08
2024-03-06 17:01:00,SystemResetWarning,0821.6,4.99,000.00,019.7,019.3,000.0,027.9,021.4,19.3,0000.1,0019.97,0007.39,0006.13
2024-03-06 17:02:00,SystemResetWarning,0821.7,5.00,000.00,019.7,019.3,000.0,027.9,021.4,19.4,0000.3,0020.88,0007.41,0006.16
2024-03-06 17:03:00,SystemResetWarning,0821.3,5.01,000.00,019.8,019.3,000.0,027.9,021.4,19.4,-000.1,0022.04,0007.36,0006.14
2024-03-06 17:04:00,SystemResetWarning,0821.3,5.00,000.00,019.8,019.3,000.0,027.9,021.4,19.2,0000.4,0023.34,0007.37,0006.14
2024-03-06 17:05:00,SystemResetWarning,0821.5,4.99,000.00,019.8,019.3,000.0,027.9,021.5,19.1,0001.4,0023.55,0007.45,0006.16
2024-03-06 17:06:00,SystemResetWarning,0821.8,4.99,000.00,019.8,019.4,000.0,028.0,021.5,19.2,0001.4,0023.55,0007.53,0006.18
2024-03-06 17:07:00,SystemResetWarning,0821.8,5.01,000.00,019.8,019.4,000.0,028.0,021.5,19.5,0002.0,0023.00,0007.56,0006.17
2024-03-06 17:08:00,SystemResetWarning,0821.6,5.01,000.00,019.8,019.4,000.0,028.0,021.5,18.9,0002.3,0021.98,0007.59,0006.17
2024-03-06 17:09:00,SystemResetWarning,0821.6,5.00,000.00,019.9,019.4,000.0,028.0,021.5,19.5,0003.0,0021.87,0007.55,0006.15
2024-03-06 17:10:00,SystemResetWarning,0821.6,5.00,000.00,019.9,019.4,000.0,028.0,021.5,20.0,0003.2,0020.64,0007.50,0006.13
2024-03-06 17:11:00,SystemResetWarning,0821.5,4.99,000.00,019.9,019.4,000.0,028.0,021.5,19.9,0003.3,0020.66,0007.49,0006.13
2024-03-06 17:12:00,SystemResetWarning,0821.8,5.00,000.00,019.9,019.4,000.0,028.0,021.5,19.9,0003.5,0021.14,0007.57,0006.16
2024-03-06 17:13:00,SystemResetWarning,0821.8,5.01,000.00,019.9,019.4,000.0,028.0,021.6,19.8,0003.6,0021.25,0007.62,0006.18
2024-03-06 17:14:00,SystemResetWarning,0821.4,5.01,000.00,019.9,019.5,000.0,028.1,021.6,19.9,0003.3,0020.86,0007.70,0006.21
2024-03-06 17:15:00,SystemResetWarning,0821.3,5.00,000.00,019.9,019.5,000.0,028.1,021.6,20.1,0002.9,0018.85,0007.70,0006.20
2024-03-06 17:16:00,SystemResetWarning,0821.3,4.99,000.00,020.0,019.5,000.0,028.1,021.6,19.7,0002.6,0018.60,0007.68,0006.18
2024-03-06 17:17:00,SystemResetWarning,0821.3,5.00,000.00,020.0,019.5,000.0,028.1,021.6,19.6,0002.7,0018.70,0007.59,0006.15
2024-03-06 17:18:00,SystemResetWarning,0821.3,4.99,000.00,020.0,019.5,000.0,028.1,021.6,19.9,0002.6,0019.12,0007.47,0006.11
2024-03-06 17:19:00,SystemResetWarning,0821.4,5.00,000.00,020.0,019.5,000.0,028.1,021.7,19.9,0002.5,0018.82,0007.43,0006.08
2024-03-06 17:20:00,SystemResetWarning,0821.5,5.00,000.00,020.0,019.5,000.0,028.2,021.7,19.8,0002.3,0018.93,0007.43,0006.07
2024-03-06 17:21:00,SystemResetWarning,0821.4,5.00,000.00,020.0,019.6,000.0,028.2,021.7,19.5,0002.1,0019.39,0007.42,0006.06
2024-03-06 17:22:00,SystemResetWarning,0821.4,5.00,000.00,020.0,019.6,000.0,028.2,021.7,19.9,0002.4,0020.15,0007.40,0006.03
2024-03-06 17:23:00,SystemResetWarning,0821.4,5.01,000.00,020.1,019.6,000.0,028.2,021.7,19.5,0002.6,0019.67,0007.26,0005.96
2024-03-06 17:24:00,SystemResetWarning,0821.3,5.00,000.00,020.1,019.6,000.0,028.2,021.8,19.3,0003.0,0018.79,0007.18,0005.92
2024-03-06 17:25:00,SystemResetWarning,0821.3,5.00,000.00,020.1,019.6,000.0,028.2,021.8,19.2,0003.6,0017.33,0007.09,0005.87
2024-03-06 17:26:00,SystemResetWarning,0821.2,5.00,000.00,020.1,019.6,000.0,028.3,021.8,19.3,0003.9,0017.20,0007.08,0005.89
2024-03-06 17:27:00,SystemResetWarning,0821.2,4.99,000.00,020.1,019.6,000.0,028.3,021.7,19.2,0004.2,0016.66,0007.11,0005.91
2024-03-06 17:28:00,SystemResetWarning,0821.3,5.00,000.00,020.1,019.6,000.0,028.3,021.7,18.7,0004.0,0016.14,0007.15,0005.93
2024-03-06 17:29:00,SystemResetWarning,0821.3,5.01,000.00,020.1,019.6,000.0,028.3,021.8,18.8,0003.8,0015.04,0007.18,0005.96
2024-03-06 17:30:00,SystemResetWarning,0821.3,5.00,000.00,020.1,019.6,000.0,028.3,021.8,18.9,0003.8,0015.42,0007.22,0006.00
2024-03-06 17:31:00,SystemResetWarning,0821.3,5.00,000.00,020.1,019.6,000.0,028.3,021.8,18.8,0003.8,0016.06,0007.28,0006.04
2024-03-06 17:32:00,SystemResetWarning,0821.3,5.00,000.00,020.1,019.6,000.0,028.3,021.8,18.7,0004.0,0016.29,0007.34,0006.08
2024-03-06 17:33:00,SystemResetWarning,0821.3,5.00,000.00,020.1,019.6,000.0,028.3,021.8,18.7,0004.1,0015.57,0007.40,0006.09
2024-03-06 17:34:00,SystemResetWarning,0821.4,4.99,000.00,020.1,019.6,000.0,028.4,021.8,18.5,0003.9,0015.71,0007.48,0006.14
2024-03-06 17:35:00,SystemResetWarning,0821.4,4.99,000.00,020.1,019.6,000.0,028.4,021.8,18.3,0003.4,0016.03,0007.53,0006.19
2024-03-06 17:36:00,SystemResetWarning,0821.6,5.00,000.00,020.1,019.6,000.0,028.4,021.8,18.3,0002.4,0017.40,0007.58,0006.25
2024-03-06 17:37:00,SystemResetWarning,0821.4,5.00,000.00,020.1,019.6,000.0,028.4,021.8,18.1,0001.9,0017.91,0007.59,0006.28
2024-03-06 17:38:00,SystemResetWarning,0821.4,5.01,000.00,020.2,019.6,000.0,028.4,021.8,17.8,0002.0,0018.35,0007.56,0006.28
2024-03-06 17:39:00,SystemResetWarning,0821.3,5.00,000.00,020.2,019.6,000.0,028.4,021.8,17.7,0002.0,0018.29,0007.56,0006.31
2024-03-06 17:40:00,SystemResetWarning,0821.3,4.99,000.00,020.2,019.6,000.0,028.4,021.8,17.8,0002.0,0018.40,0007.63,0006.33
2024-03-06 17:41:00,SystemResetWarning,0821.3,5.01,000.00,020.2,019.6,000.0,028.4,021.8,17.8,0001.4,0018.54,0007.68,0006.34
2024-03-06 17:42:00,SystemResetWarning,0821.3,5.00,000.00,020.2,019.6,000.0,028.4,021.9,17.3,0002.5,0018.30,0007.72,0006.35
2024-03-06 17:43:00,SystemResetWarning,0821.3,5.00,000.00,020.2,019.7,000.0,028.4,021.9,17.2,0002.4,0017.68,0007.70,0006.36
2024-03-06 17:44:00,SystemResetWarning,0821.3,5.00,000.00,020.2,019.7,000.0,028.4,021.9,17.4,0002.6,0018.51,0007.72,0006.36
2024-03-06 17:45:00,SystemResetWarning,0821.3,4.99,000.00,020.2,019.7,000.0,028.4,021.9,17.7,0002.6,0019.98,0007.71,0006.37
2024-03-06 17:46:00,SystemResetWarning,0821.3,4.99,000.00,020.3,019.7,000.0,028.5,021.9,18.1,0002.5,0019.81,0007.70,0006.36
2024-03-06 17:47:00,SystemResetWarning,0821.3,4.99,000.00,020.3,019.7,000.0,028.5,021.9,18.1,0002.6,0019.63,0007.65,0006.34
2024-03-06 17:48:00,SystemResetWarning,0821.2,5.01,000.00,020.3,019.7,000.0,028.5,021.9,17.5,0002.6,0018.66,0007.69,0006.35
2024-03-06 17:49:00,SystemResetWarning,0821.2,5.01,000.00,020.3,019.7,000.0,028.5,022.0,17.7,0002.5,0018.57,0007.73,0006.38
2024-03-06 17:50:00,SystemResetWarning,0821.3,4.99,000.00,020.3,019.7,000.0,028.5,021.9,17.4,0002.3,0018.70,0007.78,0006.41
2024-03-06 17:51:00,SystemResetWarning,0821.3,4.99,000.00,020.3,019.7,000.0,028.5,021.9,17.3,0002.1,0019.17,0007.83,0006.43
2024-03-06 17:52:00,SystemResetWarning,0821.2,4.99,000.00,020.3,019.8,000.0,028.5,021.9,17.2,0002.1,0020.03,0007.87,0006.45
2024-03-06 17:53:00,SystemResetWarning,0821.2,5.01,000.00,020.3,019.8,000.0,028.5,022.0,17.5,0001.8,0021.20,0007.90,0006.50
2024-03-06 17:54:00,SystemResetWarning,0821.1,5.01,000.00,020.3,019.8,000.0,028.6,022.0,17.9,0000.7,0021.79,0007.98,0006.54
2024-03-06 17:55:00,SystemResetWarning,0821.1,4.99,000.00,020.3,019.8,000.0,028.6,022.0,18.0,0000.6,0020.82,0008.00,0006.57
2024-03-06 17:56:00,SystemResetWarning,0821.2,4.99,000.00,020.3,019.8,000.0,028.6,022.0,17.7,0001.0,0019.75,0007.96,0006.60
2024-03-06 17:57:00,SystemResetWarning,0821.2,5.01,000.00,020.3,019.8,000.0,028.6,022.0,17.8,0000.7,0019.71,0008.03,0006.65
2024-03-06 17:58:00,SystemResetWarning,0821.3,5.01,000.00,020.3,019.8,000.0,028.6,022.1,17.9,0001.7,0020.23,0008.08,0006.68
2024-03-06 17:59:00,SystemResetWarning,0821.3,5.00,000.00,020.3,019.8,000.0,028.6,022.0,18.3,0002.1,0019.38,0008.07,0006.69
